Location: Владивосток
(43.1151°N, 131.8856°E)
Time: 21:32:51
(UTC+10:00)

DX 1 - Pass Details

Date: 08 July 2022
Orbit: 617 x 629 km, 98.4° (Epoch: 11 August)

Event Time Altitude Azimuth Distance (km) Brightness Sun altitude
Rises 23:25:44 0° 1° (N) 2,926 ? -19.6°
Reaches altitude 10° 23:28:15 10° 347° (NNW) 2,012 ? -19.8°
Maximum altitude 23:31:44 24° 294° (WNW) 1,311 ? -20.1°
Drops below altitude 10° 23:35:12 10° 241° (WSW) 1,994 ? -20.3°
Enters shadow 23:36:51 - 231° (SW) 2,575 ? -20.5°
